CGPHK CYPQ-CYXU

Flight info

Callsign CGPHK
Flight time N/A
Altitude 4000
Route CYPQ CYLS 0010 CYLS CYXU
Aircraft BE58/L-SDFGRY/C

Departure

Time 2026-05-05 19:31
Airport Peterborough Regional Airport (CYPQ)

Arrival

Time N/A
Airport London International Airport (CYXU)
Time Latitude Longitude Altitude Speed Heading
2026-05-05 19:21 44.23429 -78.35530 628 ft 0 kts 76°
2026-05-05 19:26 44.23443 -78.35514 629 ft 4 kts 338°
2026-05-05 19:26 44.23444 -78.35544 631 ft 0 kts 247°
2026-05-05 19:27 44.23440 -78.35555 631 ft 0 kts 237°
2026-05-05 19:28 44.23394 -78.35582 628 ft 15 kts 192°
2026-05-05 19:29 44.23304 -78.35604 628 ft 12 kts 164°
2026-05-05 19:29 44.23301 -78.35485 628 ft 17 kts 75°
2026-05-05 19:29 44.23327 -78.35332 628 ft 15 kts 77°
2026-05-05 19:29 44.23350 -78.35198 628 ft 14 kts 75°
2026-05-05 19:30 44.23366 -78.35083 628 ft 10 kts 101°
2026-05-05 19:30 44.23347 -78.35055 632 ft 0 kts 173°
2026-05-05 19:30 44.23346 -78.35055 631 ft 3 kts 173°
2026-05-05 19:30 44.23300 -78.35036 631 ft 8 kts 166°
2026-05-05 19:31 44.23259 -78.35191 629 ft 56 kts 256°
2026-05-05 19:31 44.23099 -78.36056 731 ft 115 kts 265°
2026-05-05 19:31 44.22896 -78.37213 1095 ft 128 kts 256°
2026-05-05 19:31 44.22779 -78.38436 1564 ft 133 kts 277°
2026-05-05 19:32 44.23026 -78.39688 2054 ft 134 kts 290°
2026-05-05 19:32 44.23360 -78.40937 2449 ft 142 kts 292°
2026-05-05 19:32 44.23692 -78.42237 2901 ft 141 kts 289°
2026-05-05 19:32 44.24003 -78.43561 3272 ft 145 kts 289°
2026-05-05 19:33 44.24331 -78.44871 3655 ft 145 kts 288°
2026-05-05 19:33 44.24686 -78.46194 3990 ft 148 kts 288°
2026-05-05 19:33 44.25065 -78.47546 4412 ft 147 kts 287°
2026-05-05 19:33 44.25444 -78.48840 4783 ft 145 kts 284°
2026-05-05 19:34 44.25802 -78.50131 5198 ft 139 kts 285°
2026-05-05 19:34 44.26152 -78.51280 5856 ft 120 kts 283°
2026-05-05 19:34 44.26462 -78.52374 6106 ft 129 kts 280°
2026-05-05 19:35 44.27078 -78.54811 6526 ft 134 kts 279°
2026-05-05 19:35 44.27408 -78.56021 6770 ft 133 kts 280°
2026-05-05 19:35 44.27742 -78.57171 7123 ft 123 kts 280°
2026-05-05 19:35 44.28071 -78.58239 7472 ft 117 kts 280°
2026-05-05 19:36 44.28412 -78.59334 7514 ft 129 kts 280°
2026-05-05 19:36 44.28767 -78.60523 7523 ft 136 kts 280°
2026-05-05 19:36 44.29135 -78.61771 7531 ft 141 kts 280°
2026-05-05 19:36 44.29508 -78.63058 7533 ft 144 kts 280°
2026-05-05 19:37 44.29883 -78.64365 7541 ft 146 kts 280°
2026-05-05 19:37 44.30261 -78.65682 7543 ft 147 kts 280°
2026-05-05 19:37 44.30639 -78.67007 7538 ft 147 kts 280°
2026-05-05 19:37 44.31019 -78.68336 7544 ft 148 kts 280°
2026-05-05 19:38 44.31403 -78.69673 7544 ft 148 kts 280°
2026-05-05 19:38 44.31797 -78.70994 7545 ft 147 kts 280°
2026-05-05 19:38 44.32193 -78.72316 7546 ft 148 kts 280°
2026-05-05 19:38 44.32584 -78.73621 7546 ft 148 kts 280°
2026-05-05 19:39 44.32980 -78.74946 7548 ft 148 kts 280°
2026-05-05 19:39 44.33378 -78.76267 7546 ft 148 kts 280°
2026-05-05 19:39 44.33775 -78.77590 7546 ft 148 kts 280°
2026-05-05 19:39 44.34172 -78.78915 7546 ft 147 kts 279°
2026-05-05 19:40 44.34181 -78.80217 7550 ft 134 kts 243°
2026-05-05 19:40 44.33410 -78.80966 7552 ft 150 kts 205°
2026-05-05 19:40 44.32385 -78.81221 7549 ft 136 kts 216°
2026-05-05 19:40 44.31877 -78.82133 7363 ft 123 kts 258°
2026-05-05 19:41 44.31972 -78.83342 7116 ft 130 kts 275°
2026-05-05 19:41 44.32380 -78.84522 6882 ft 135 kts 282°
2026-05-05 19:41 44.32736 -78.85735 6636 ft 135 kts 279°
2026-05-05 19:41 44.33052 -78.86975 6407 ft 136 kts 279°
2026-05-05 19:42 44.33352 -78.88237 6163 ft 137 kts 279°
2026-05-05 19:42 44.33650 -78.89513 5906 ft 139 kts 279°
2026-05-05 19:42 44.33948 -78.90804 5648 ft 141 kts 279°
2026-05-05 19:42 44.34246 -78.92094 5550 ft 136 kts 279°
2026-05-05 19:43 44.34529 -78.93318 5541 ft 130 kts 279°
2026-05-05 19:43 44.34800 -78.94502 5537 ft 126 kts 279°
2026-05-05 19:43 44.35064 -78.95658 5539 ft 124 kts 279°
2026-05-05 19:43 44.35198 -78.96785 5540 ft 116 kts 259°
2026-05-05 19:44 44.34883 -78.97791 5542 ft 116 kts 234°
2026-05-05 19:44 44.34337 -78.98617 5546 ft 116 kts 233°
2026-05-05 19:44 44.33786 -78.99449 5548 ft 117 kts 233°
2026-05-05 19:44 44.33230 -79.00283 5549 ft 117 kts 232°
2026-05-05 19:45 44.32672 -79.01111 5547 ft 117 kts 232°
2026-05-05 19:45 44.32117 -79.01934 5545 ft 116 kts 232°
2026-05-05 19:45 44.31530 -79.02712 5541 ft 121 kts 218°
2026-05-05 19:45 44.30647 -79.02759 5533 ft 145 kts 180°
2026-05-05 19:46 44.29685 -79.02271 5528 ft 152 kts 169°
2026-05-05 19:46 44.28846 -79.01244 5535 ft 166 kts 147°
2026-05-05 19:46 44.28067 -79.00054 5535 ft 166 kts 147°
2026-05-05 19:46 44.27291 -78.98868 5533 ft 167 kts 147°
2026-05-05 19:47 44.26488 -78.97651 5636 ft 174 kts 147°
2026-05-05 19:47 44.25645 -78.96389 5901 ft 181 kts 148°
2026-05-05 19:47 44.24785 -78.95084 6162 ft 184 kts 148°
2026-05-05 19:47 44.23924 -78.93749 6406 ft 186 kts 148°
2026-05-05 19:48 44.23072 -78.92394 6641 ft 186 kts 148°
2026-05-05 19:48 44.22232 -78.91026 6883 ft 186 kts 147°
2026-05-05 19:48 44.21413 -78.89672 7119 ft 184 kts 147°
2026-05-05 19:48 44.20598 -78.88299 7359 ft 183 kts 147°
2026-05-05 19:49 44.19800 -78.86926 7529 ft 185 kts 147°
2026-05-05 19:49 44.19238 -78.85972 7528 ft 191 kts 147°
2026-05-05 19:49 44.18089 -78.84057 7532 ft 197 kts 147°
2026-05-05 19:49 44.17197 -78.82591 7533 ft 200 kts 147°
2026-05-05 19:50 44.16286 -78.81110 7536 ft 202 kts 147°
2026-05-05 19:50 44.15360 -78.79619 7535 ft 204 kts 147°
2026-05-05 19:50 44.14426 -78.78121 7532 ft 205 kts 147°
2026-05-05 19:50 44.13465 -78.76662 7535 ft 196 kts 158°
2026-05-05 19:51 44.12335 -78.76106 7547 ft 162 kts 194°
2026-05-05 19:51 44.11222 -78.76134 7539 ft 160 kts 198°
2026-05-05 19:51 44.10108 -78.76197 7535 ft 160 kts 198°
2026-05-05 19:51 44.09000 -78.76261 7531 ft 159 kts 198°
2026-05-05 19:52 44.07880 -78.76225 7512 ft 172 kts 184°
2026-05-05 19:52 44.06794 -78.75305 7391 ft 195 kts 151°
2026-05-05 19:52 44.05858 -78.73982 7117 ft 188 kts 154°
2026-05-05 19:52 44.04917 -78.72763 6863 ft 186 kts 155°
2026-05-05 19:53 44.03895 -78.71782 6642 ft 172 kts 176°
2026-05-05 19:53 44.02745 -78.71283 6408 ft 176 kts 180°
2026-05-05 19:53 44.01544 -78.70825 6170 ft 181 kts 181°
2026-05-05 19:53 44.00311 -78.70381 5913 ft 184 kts 180°
2026-05-05 19:54 43.99066 -78.69963 5654 ft 184 kts 180°
2026-05-05 19:54 43.97817 -78.69580 5524 ft 180 kts 181°
2026-05-05 19:54 43.96619 -78.69217 5512 ft 174 kts 181°
2026-05-05 19:54 43.95456 -78.68850 5507 ft 169 kts 181°
2026-05-05 19:55 43.94318 -78.68533 5505 ft 159 kts 193°
2026-05-05 19:55 43.93400 -78.69073 5530 ft 139 kts 228°
2026-05-05 19:55 43.92735 -78.69888 5374 ft 129 kts 229°
2026-05-05 19:55 43.92038 -78.70781 4998 ft 141 kts 228°
2026-05-05 19:56 43.91320 -78.71789 4858 ft 153 kts 230°
2026-05-05 19:56 43.90567 -78.72853 4610 ft 156 kts 230°
2026-05-05 19:56 43.89803 -78.73945 4353 ft 160 kts 230°
2026-05-05 19:56 43.89001 -78.75090 4125 ft 175 kts 230°
2026-05-05 19:57 43.88113 -78.76358 3883 ft 190 kts 230°
2026-05-05 19:57 43.87484 -78.77264 3710 ft 196 kts 230°
2026-05-05 19:57 43.86215 -78.79082 3533 ft 196 kts 230°
2026-05-05 19:57 43.85270 -78.80400 3530 ft 191 kts 230°
2026-05-05 19:58 43.84337 -78.81689 3519 ft 188 kts 230°
2026-05-05 19:58 43.83413 -78.82964 3520 ft 187 kts 230°
2026-05-05 19:58 43.82491 -78.84234 3522 ft 187 kts 230°